494  
NZUS99 KSGF 231807  
HRRSGF  
 
HOURLY WEATHER  
NATIONAL WEATHER SERVICE SPRINGFIELD MO  
1200 PM CST SAT JAN 23 2021  
   
.....SGF CWA...
 
 
 
CITY SKY/WX TMP DP RH WIND PRES REMARKS  
SPRINGFIELD PTSUNNY 38 10 31 SE13 30.15F WCI 30  
6HR MIN TEMP: 24; 6HR MAX TEMP: 39;  
 
JOPLIN CLOUDY 42 12 29 SE15G24 30.13F  
6HR MIN TEMP: 25; 6HR MAX TEMP: 42;  
 
WEST PLAINS CLOUDY 39 8 27 E13 30.22F WCI 31  
6HR MIN TEMP: 22; 6HR MAX TEMP: 39;  
 
ROLLA SUNNY 36 9 32 SE12 30.23F WCI 28  
6HR MIN TEMP: 19; 6HR MAX TEMP: 36;  
 
OSAGE BEACH SUNNY 38 7 27 E10 30.22F WCI 31  
BRANSON PTSUNNY 36 10 35 SE10G18 30.19F WCI 28  
   
.....SURROUNDING SGF CWA...
 
 
 
CITY SKY/WX TMP DP RH WIND PRES REMARKS  
CHANUTE CLOUDY 41 19 41 SE10 30.12F  
PARSONS N/A N/A N/A N/A MISG 30.13F  
COFFEYVILLE CLOUDY 43 20 39 S15 30.11F  
EMPORIA CLOUDY 36 19 50 SE10 30.07F WCI 28  
GROVE OK CLOUDY 41 18 38 SE9 30.15F  
ROGERS AR CLOUDY 37 12 35 SE10 30.15F WCI 30  
SILOAM SPRINGS CLOUDY 38 20 48 E8 30.14F WCI 32  
HARRISON AR CLOUDY 35 11 36 SE14 30.18F WCI 26  
NEAR YELLVILLE CLOUDY 37 12 35 VRB7G16 30.24F WCI 32  
   
.....KANSAS AND MISSOURI...
 
 
 
CITY SKY/WX TMP DP RH WIND PRES REMARKS  
KANSAS CTY INT PTSUNNY 35 10 35 SE14 30.15F WCI 26  
DOWNTOWN KC MOSUNNY 37 7 28 SE9 30.16F WCI 30  
COLUMBIA SUNNY 36 8 31 SE10G18 30.24F WCI 28  
SEDALIA SUNNY 37 9 31 SE12 30.21F WCI 29  
ST JOSEPH PTSUNNY 33 9 36 SE17 30.16F WCI 22  
ST LOUIS PTSUNNY 34 8 33 E10 30.32F WCI 26  
SPIRIT OF STL SUNNY 34 7 32 SE8 30.31F WCI 27  
KIRKSVILLE SUNNY 30 9 41 SE12 30.25F WCI 20  
WICHITA PTSUNNY 41 25 53 S18 30.01F  
TOPEKA CLOUDY 37 14 38 SE14 30.12F WCI 28  
OLATHE PTSUNNY 35 11 36 SE10 30.14F WCI 27  
   
.....TENNESSEE...
 
 
 
CITY SKY/WX TMP DP RH WIND PRES REMARKS  
MEMPHIS MOSUNNY 47 19 33 E8 30.22F  
NASHVILLE MOSUNNY 43 13 29 E10 30.29F  
   
.....ARKANSAS....
 
 
 
CITY SKY/WX TMP DP RH WIND PRES REMARKS  
FAYETTEVILLE CLOUDY 42 20 41 E6 30.15F  
FT SMITH CLOUDY 39 21 48 E13 30.18F WCI 31  
LITTLE ROCK CLOUDY 40 23 50 NE8 30.23F WCI 34  
   
.....OKLAHOMA....
 
 
 
CITY SKY/WX TMP DP RH WIND PRES REMARKS  
TULSA CLOUDY 43 23 45 SE15 30.11F  
PONCA CITY PTSUNNY 48 29 47 SE16 30.06F  
MCALESTER CLOUDY 47 34 60 VRB6G16 30.12F  
OKLAHOMA CITY CLOUDY 46 37 71 S15G21 30.04F  
   
.....IOWA.........
 
 
 
CITY SKY/WX TMP DP RH WIND PRES REMARKS  
DES MOINES CLOUDY 21 6 52 SE9 30.22F WCI 11  
QUAD CITIES CLOUDY 20 5 52 S10 30.34F WCI 9  
   
.....ILLINOIS.....
 
 
 
CITY SKY/WX TMP DP RH WIND PRES REMARKS  
QUINCY SUNNY 30 4 33 SE9 30.29F WCI 22  
CHICAGO PTSUNNY 26 5 40 SW8 30.35F WCI 18  
 
 
 
CLICK HERE TO GO TO PREVIOUS BULLETINS.

The Nexlab MO Page
The Nexlab KS Page Main Text Page